CW4086 Weather Reports


time (UTC)temp
C
wind
direction
speed
KPH
gust
KPH
rain 1hr
cm
rain 24hr
cm
rain mn
cm
humidity
%
barometer
mb
20260906053104 25 271 0.0 0.0 0.00 0.00 0.00 40 1013.3
20260906052604 25 271 0.0 1.6 0.00 0.00 0.00 39 1013.3
20260906052105 25 271 0.0 1.6 0.00 0.00 0.00 38 1013.2
20260906051603 25 271 0.0 1.6 0.00 0.00 0.00 39 1013.3
20260906051104 25 271 0.0 0.0 0.00 0.00 0.00 39 1013.3
20260906050604 25 271 0.0 0.0 0.00 0.00 0.00 38 1013.3
20260906045604 25 271 0.0 1.6 0.00 0.00 0.00 38 1013.4
20260906045104 25 271 0.0 1.6 0.00 0.00 0.00 39 1013.3
20260906044604 25 271 0.0 1.6 0.00 0.00 0.00 40 1013.3
20260906044104 25 271 0.0 1.6 0.00 0.00 0.00 40 1013.3
20260906042604 25 271 0.0 1.6 0.00 0.00 0.00 40 1013.3
20260906042106 26 271 0.0 1.6 0.00 0.00 0.00 40 1013.3
20260906041604 26 271 0.0 1.6 0.00 0.00 0.00 40 1013.4
20260906041103 26 271 0.0 1.6 0.00 0.00 0.00 39 1013.3
20260906040604 26 271 0.0 1.6 0.00 0.00 0.00 39 1013.4
20260906040105 25 271 0.0 0.0 0.00 0.00 0.00 38 1013.5
20260906035604 26 271 0.0 0.0 0.00 0.00 0.00 39 1013.4
20260906035103 26 271 0.0 1.6 0.00 0.00 0.00 38 1013.4
20260906034604 26 271 0.0 4.8 0.00 0.00 0.00 38 1013.4
20260906033104 26 270 3.2 11.3 0.00 0.00 0.00 38 1013.3
20260906032603 26 272 8.0 11.3 0.00 0.00 0.00 37 1013.2
20260906032104 27 276 4.8 8.0 0.00 0.00 0.00 37 1013.2
20260906031604 27 272 3.2 8.0 0.00 0.00 0.00 36 1013.3
20260906031106 27 221 0.0 4.8 0.00 0.00 0.00 36 1013.1
20260906030604 27 195 0.0 4.8 0.00 0.00 0.00 35 1013.2
20260906030109 27 178 1.6 3.2 0.00 0.00 0.00 35 1013.0
20260906024604 27 209 0.0 3.2 0.00 0.00 0.00 34 1012.9
20260906024104 27 209 1.6 4.8 0.00 0.00 0.00 34 1012.9
20260906023604 28 209 1.6 4.8 0.00 0.00 0.00 34 1012.9
20260906023104 28 209 0.0 4.8 0.00 0.00 0.00 34 1012.9
20260906022604 28 209 1.6 4.8 0.00 0.00 0.00 34 1012.8
20260906022104 28 209 0.0 8.0 0.00 0.00 0.00 33 1012.7
20260906021604 28 209 1.6 8.0 0.00 0.00 0.00 33 1012.5
20260906021106 28 221 1.6 8.0 0.00 0.00 0.00 33 1012.5
20260906020604 29 248 1.6 8.0 0.00 0.00 0.00 33 1012.5
20260906020104 29 241 3.2 9.7 0.00 0.00 0.00 31 1012.4
20260906015604 29 225 3.2 12.9 0.00 0.00 0.00 31 1012.4
20260906014603 30 245 4.8 12.9 0.00 0.00 0.00 31 1012.4
20260906014103 30 249 8.0 12.9 0.00 0.00 0.00 31 1012.4
20260906013604 30 240 6.4 12.9 0.00 0.00 0.00 31 1012.4
20260906012604 30 238 8.0 11.3 0.00 0.00 0.00 30 1012.4
20260906012104 30 222 4.8 12.9 0.00 0.00 0.00 31 1012.5
20260906011604 30 239 8.0 12.9 0.00 0.00 0.00 30 1012.4
20260906011106 30 246 6.4 12.9 0.00 0.00 0.00 31 1012.4
20260906010604 30 258 8.0 12.9 0.00 0.00 0.00 31 1012.5
20260906010107 31 246 4.8 12.9 0.00 0.00 0.00 31 1012.4
20260906005604 31 265 8.0 11.3 0.00 0.00 0.00 29 1012.5
20260906005103 31 194 6.4 9.7 0.00 0.00 0.00 29 1012.5
20260906004604 30 229 4.8 12.9 0.00 0.00 0.00 30 1012.5
20260906004104 30 267 8.0 12.9 0.00 0.00 0.00 31 1012.5
20260906003104 30 228 8.0 12.9 0.00 0.00 0.00 31 1012.4
20260906002604 30 262 6.4 11.3 0.00 0.00 0.00 32 1012.4
20260906002105 30 229 4.8 12.9 0.00 0.00 0.00 32 1012.4
20260906001603 30 278 8.0 12.9 0.00 0.00 0.00 33 1012.4
20260906000603 30 280 8.0 16.1 0.00 0.00 0.00 31 1012.4
20260905235604 30 255 8.0 12.9 0.00 0.00 0.00 32 1012.4
20260905235104 30 287 8.0 14.5 0.00 0.00 0.00 33 1012.4
20260905234104 31 260 6.4 14.5 0.00 0.00 0.00 30 1012.4
20260905233604 31 261 3.2 16.1 0.00 0.00 0.00 29 1012.4
20260905233103 31 267 8.0 16.1 0.00 0.00 0.00 29 1012.4
20260905232604 31 220 4.8 16.1 0.00 0.00 0.00 29 1012.4
20260905232104 31 225 8.0 20.9 0.00 0.00 0.00 29 1012.4
20260905231104 31 165 6.4 16.1 0.00 0.00 0.00 30 1012.5
20260905230604 31 226 6.4 16.1 0.00 0.00 0.00 30 1012.5
20260905230107 31 244 8.0 12.9 0.00 0.00 0.00 30 1012.5
20260905225104 31 252 4.8 12.9 0.00 0.00 0.00 29 1012.6
20260905224604 31 251 8.0 12.9 0.00 0.00 0.00 29 1012.6
20260905223604 31 254 9.7 16.1 0.00 0.00 0.00 27 1012.7
20260905223104 31 249 8.0 20.9 0.00 0.00 0.00 28 1012.7
20260905222104 32 259 8.0 19.3 0.00 0.00 0.00 26 1012.8
20260905221603 32 269 9.7 19.3 0.00 0.00 0.00 26 1012.9
20260905221103 32 240 9.7 19.3 0.00 0.00 0.00 28 1012.9
20260905220604 31 257 6.4 20.9 0.00 0.00 0.00 27 1013.0
20260905220113 31 185 4.8 20.9 0.00 0.00 0.00 27 1013.1
20260905215603 31 282 8.0 19.3 0.00 0.00 0.00 26 1013.1
20260905215103 31 273 8.0 19.3 0.00 0.00 0.00 26 1013.1
20260905214604 31 257 9.7 16.1 0.00 0.00 0.00 25 1013.2
20260905213604 32 261 8.0 16.1 0.00 0.00 0.00 25 1013.3
20260905213104 32 260 8.0 16.1 0.00 0.00 0.00 25 1013.4
20260905212606 31 262 11.3 19.3 0.00 0.00 0.00 25 1013.4
20260905212105 32 272 9.7 19.3 0.00 0.00 0.00 25 1013.4
20260905211603 32 271 11.3 19.3 0.00 0.00 0.00 24 1013.4
20260905211104 32 276 9.7 19.3 0.00 0.00 0.00 25 1013.4
20260905210604 32 302 6.4 19.3 0.00 0.00 0.00 25 1013.5
20260905210109 32 264 9.7 20.9 0.00 0.00 0.00 25 1013.5
20260905205604 32 275 11.3 20.9 0.00 0.00 0.00 25 1013.4
20260905205104 32 254 9.7 20.9 0.00 0.00 0.00 22 1013.6
20260905204604 32 267 14.5 20.9 0.00 0.00 0.00 24 1013.6
20260905204103 32 290 11.3 14.5 0.00 0.00 0.00 22 1013.7
20260905203104 31 252 8.0 22.5 0.00 0.00 0.00 22 1013.7
20260905202603 31 280 11.3 19.3 0.00 0.00 0.00 23 1013.7
20260905202103 31 267 9.7 19.3 0.00 0.00 0.00 22 1013.7
20260905201603 31 270 8.0 19.3 0.00 0.00 0.00 23 1013.7
20260905200604 31 272 9.7 16.1 0.00 0.00 0.00 21 1013.8
20260905200111 31 273 9.7 16.1 0.00 0.00 0.00 20 1013.8
20260905195604 31 282 6.4 19.3 0.00 0.00 0.00 19 1013.8
20260905195104 31 273 9.7 19.3 0.00 0.00 0.00 21 1014.0
20260905194604 30 291 6.4 19.3 0.00 0.00 0.00 20 1014.0
20260905194104 30 291 8.0 19.3 0.00 0.00 0.00 22 1014.1
20260905193603 31 274 9.7 16.1 0.00 0.00 0.00 19 1014.2
20260905192604 31 301 9.7 12.9 0.00 0.00 0.00 21 1014.3
20260905191604 30 259 8.0 11.3 0.00 0.00 0.00 21 1014.3
20260905191104 30 292 4.8 12.9 0.00 0.00 0.00 21 1014.4
20260905190107 30 308 8.0 14.5 0.00 0.00 0.00 20 1014.5
20260905185104 30 272 8.0 12.9 0.00 0.00 0.00 21 1014.6
20260905184604 30 325 3.2 11.3 0.00 0.00 0.00 20 1014.6
20260905184105 29 290 4.8 11.3 0.00 0.00 0.00 21 1014.7
20260905183604 29 286 8.0 11.3 0.00 0.00 0.00 21 1014.7
20260905183104 29 338 4.8 9.7 0.00 0.00 0.00 21 1014.8
20260905182604 28 275 4.8 9.7 0.00 0.00 0.00 21 1014.9
20260905181604 28 331 4.8 11.3 0.00 0.00 0.00 21 1015.0
20260905181104 27 319 3.2 11.3 0.00 0.00 0.00 24 1015.0
20260905180104 27 290 3.2 11.3 0.00 0.00 0.00 24 1015.0
20260905175604 27 303 6.4 9.7 0.00 0.00 0.00 23 1015.0
20260905175104 27 304 3.2 11.3 0.00 0.00 0.00 24 1015.0
20260905174104 26 280 3.2 9.7 0.00 0.00 0.00 23 1014.7
20260905173604 26 265 3.2 9.7 0.00 0.00 0.00 24 1014.7
20260905173104 26 301 4.8 9.7 0.00 0.00 0.00 25 1014.6
20260905172603 25 290 4.8 8.0 0.00 0.00 0.00 28 1014.6
20260905172103 25 291 4.8 9.7 0.00 0.00 0.00 26 1014.7
20260905171603 25 291 4.8 9.7 0.00 0.00 0.00 26 1014.6
20260905171107 25 301 3.2 8.0 0.00 0.00 0.00 26 1014.6
20260905170604 25 302 4.8 8.0 0.00 0.00 0.00 26 1014.7
20260905170108 25 302 3.2 8.0 0.00 0.00 0.00 26 1014.7
20260905165604 25 306 3.2 8.0 0.00 0.00 0.00 26 1014.7
20260905165104 24 307 4.8 8.0 0.00 0.00 0.00 26 1014.7
20260905164604 24 306 4.8 8.0 0.00 0.00 0.00 27 1014.7
20260905163604 23 296 3.2 8.0 0.00 0.00 0.00 29 1014.6
20260905163104 23 297 3.2 8.0 0.00 0.00 0.00 29 1014.6
20260905161103 22 314 3.2 4.8 0.00 0.00 0.00 32 1014.6
20260905160603 22 321 4.8 4.8 0.00 0.00 0.00 31 1014.6
20260905160110 22 34 1.6 4.8 0.00 0.00 0.00 32 1014.5
20260905155604 22 34 3.2 4.8 0.00 0.00 0.00 31 1014.5
20260905155104 22 34 1.6 4.8 0.00 0.00 0.00 32 1014.5
20260905154603 22 34 0.0 3.2 0.00 0.00 0.00 34 1014.5
20260905154104 21 34 0.0 4.8 0.00 0.00 0.00 35 1014.5
20260905153604 21 34 1.6 4.8 0.00 0.00 0.00 36 1014.4
20260905153104 21 34 1.6 3.2 0.00 0.00 0.00 32 1014.4
20260905152103 21 34 0.0 1.6 0.00 0.00 0.00 37 1014.2
20260905150604 21 34 0.0 1.6 0.00 0.00 0.00 39 1014.2
20260905150109 21 34 0.0 1.6 0.00 0.00 0.00 31 1014.2
20260905145604 20 34 0.0 3.2 0.00 0.00 0.00 32 1014.2
20260905145104 20 34 0.0 3.2 0.00 0.00 0.00 32 1014.2
20260905144104 18 34 1.6 3.2 0.00 0.00 0.00 32 1014.1
20260905143604 18 34 3.2 3.2 0.00 0.00 0.00 32 1014.1
20260905143104 18 34 1.6 4.8 0.00 0.00 0.00 33 1014.0
20260905142604 17 34 1.6 4.8 0.00 0.00 0.00 36 1013.9
20260905142104 17 34 1.6 3.2 0.00 0.00 0.00 37 1013.9
20260905141604 17 34 1.6 3.2 0.00 0.00 0.00 37 1013.8
20260905140604 17 20 0.0 3.2 0.00 0.00 0.00 36 1013.7
20260905140104 17 20 1.6 3.2 0.00 0.00 0.00 36 1013.7
20260905135604 17 20 0.0 3.2 0.00 0.00 0.00 35 1013.7
20260905135104 17 20 1.6 4.8 0.00 0.00 0.00 35 1013.7
20260905134604 17 20 3.2 4.8 0.00 0.00 0.00 34 1013.7
20260905134104 17 19 1.6 3.2 0.00 0.00 0.00 35 1013.7
20260905133605 17 19 1.6 3.2 0.00 0.00 0.00 36 1013.7
20260905132604 17 19 1.6 3.2 0.00 0.00 0.00 35 1013.6
20260905132104 17 19 3.2 3.2 0.00 0.00 0.00 35 1013.6
20260905131604 17 19 3.2 3.2 0.00 0.00 0.00 36 1013.6
20260905131107 17 19 1.6 3.2 0.00 0.00 0.00 36 1013.7
20260905130605 17 19 1.6 3.2 0.00 0.00 0.00 36 1013.7
20260905130106 16 19 0.0 3.2 0.00 0.00 0.00 38 1013.8
20260905125604 16 19 1.6 3.2 0.00 0.00 0.00 37 1013.7
20260905125104 16 19 1.6 3.2 0.00 0.00 0.00 37 1013.7
20260905124604 16 19 0.0 3.2 0.00 0.00 0.00 36 1013.6
20260905124104 17 19 1.6 3.2 0.00 0.00 0.00 37 1013.5
20260905123604 17 19 1.6 3.2 0.00 0.00 0.00 37 1013.3
20260905123104 17 19 0.0 3.2 0.00 0.00 0.00 35 1013.3
20260905122604 17 19 1.6 3.2 0.00 0.00 0.00 36 1013.3
20260905122104 17 19 3.2 3.2 0.00 0.00 0.00 37 1013.3
20260905121104 17 19 3.2 4.8 0.00 0.00 0.00 38 1013.3
20260905120108 16 19 1.6 4.8 0.00 0.00 0.00 39 1013.3
20260905115604 16 19 1.6 4.8 0.00 0.00 0.00 39 1013.3
20260905115103 16 19 1.6 3.2 0.00 0.00 0.00 40 1013.3
20260905114603 16 19 1.6 3.2 0.00 0.00 0.00 39 1013.3
20260905113605 16 19 3.2 3.2 0.00 0.00 0.00 40 1013.2
20260905113104 16 19 1.6 3.2 0.00 0.00 0.00 40 1013.3
20260905112604 16 19 1.6 3.2 0.00 0.00 0.00 40 1013.3
20260905112104 16 19 1.6 3.2 0.00 0.00 0.00 40 1013.3
20260905111604 16 19 1.6 3.2 0.00 0.00 0.00 41 1013.3
20260905111107 16 19 1.6 3.2 0.00 0.00 0.00 40 1013.4
20260905110107 17 19 0.0 3.2 0.00 0.00 0.00 40 1013.4
20260905105604 17 19 1.6 3.2 0.00 0.00 0.00 41 1013.5
20260905105104 16 19 1.6 3.2 0.00 0.00 0.00 41 1013.6
20260905104604 16 19 1.6 3.2 0.00 0.00 0.00 41 1013.7
20260905104103 16 19 1.6 3.2 0.00 0.00 0.00 42 1013.7
20260905103604 17 19 1.6 3.2 0.00 0.00 0.00 42 1013.7
20260905103104 17 19 1.6 3.2 0.00 0.00 0.00 41 1013.7
20260905102603 17 19 1.6 3.2 0.00 0.00 0.00 41 1013.7
20260905102104 17 19 1.6 3.2 0.00 0.00 0.00 40 1013.7
20260905101104 17 19 3.2 3.2 0.00 0.00 0.00 41 1013.7
20260905100604 17 19 1.6 3.2 0.00 0.00 0.00 41 1013.7
20260905100104 17 19 1.6 3.2 0.00 0.00 0.00 41 1013.7
20260905095604 17 19 1.6 3.2 0.00 0.00 0.00 41 1013.7
20260905095104 17 19 1.6 3.2 0.00 0.00 0.00 41 1013.7
20260905094604 17 19 1.6 3.2 0.00 0.00 0.00 41 1013.7
20260905094104 17 19 1.6 3.2 0.00 0.00 0.00 41 1013.7
20260905093603 17 19 1.6 3.2 0.00 0.00 0.00 41 1013.7
20260905093103 17 19 1.6 3.2 0.00 0.00 0.00 41 1013.7
20260905092104 17 19 1.6 3.2 0.00 0.00 0.00 40 1013.7
20260905091604 17 19 1.6 3.2 0.00 0.00 0.00 39 1013.7
20260905091107 18 19 1.6 4.8 0.00 0.00 0.00 39 1013.7
20260905090604 18 19 1.6 4.8 0.00 0.00 0.00 38 1013.8
20260905090106 18 19 1.6 3.2 0.00 0.00 0.00 38 1013.7
20260905085604 17 19 1.6 3.2 0.00 0.00 0.00 39 1013.8
20260905085104 18 19 1.6 3.2 0.00 0.00 0.00 39 1013.8
20260905084604 18 19 1.6 3.2 0.00 0.00 0.00 39 1013.8
20260905084104 18 19 1.6 4.8 0.00 0.00 0.00 39 1013.8
20260905083603 18 19 1.6 4.8 0.00 0.00 0.00 38 1013.8
20260905083104 18 322 3.2 4.8 0.00 0.00 0.00 37 1013.9
20260905082604 18 284 3.2 4.8 0.00 0.00 0.00 37 1014.1
20260905082104 18 284 1.6 4.8 0.00 0.00 0.00 38 1014.2
20260905081603 18 284 3.2 4.8 0.00 0.00 0.00 38 1014.3
20260905081103 18 284 1.6 3.2 0.00 0.00 0.00 39 1014.3
20260905080604 18 284 1.6 3.2 0.00 0.00 0.00 38 1014.3
20260905080104 18 284 1.6 3.2 0.00 0.00 0.00 38 1014.3
20260905075604 18 284 1.6 3.2 0.00 0.00 0.00 38 1014.3
20260905075104 18 284 1.6 3.2 0.00 0.00 0.00 39 1014.3
20260905074604 18 284 1.6 3.2 0.00 0.00 0.00 38 1014.3
20260905074105 18 284 1.6 3.2 0.00 0.00 0.00 38 1014.3
20260905073604 18 284 1.6 3.2 0.00 0.00 0.00 38 1014.3
20260905073103 18 284 1.6 3.2 0.00 0.00 0.00 38 1014.3
20260905072104 18 284 0.0 1.6 0.00 0.00 0.00 38 1014.3
20260905071106 18 284 0.0 1.6 0.00 0.00 0.00 38 1014.3
20260905070604 18 284 0.0 1.6 0.00 0.00 0.00 38 1014.3
20260905070106 18 284 0.0 1.6 0.00 0.00 0.00 38 1014.2
20260905064104 18 284 1.6 4.8 0.00 0.00 0.00 38 1013.9
20260905063604 18 284 1.6 3.2 0.00 0.00 0.00 37 1014.1
20260905063104 18 284 1.6 3.2 0.00 0.00 0.00 37 1014.2
20260905062604 18 284 1.6 3.2 0.00 0.00 0.00 36 1014.2
20260905062104 19 284 0.0 3.2 0.00 0.00 0.00 36 1014.1
20260905061604 19 284 1.6 3.2 0.00 0.00 0.00 36 1014.1
20260905061104 19 284 1.6 3.2 0.00 0.00 0.00 36 1014.0
20260905060604 19 284 1.6 3.2 0.00 0.00 0.00 36 1014.1
20260905060104 19 284 1.6 3.2 0.00 0.00 0.00 36 1014.0
20260905055604 20 284 1.6 3.2 0.00 0.00 0.00 35 1014.0
20260905055104 20 284 0.0 3.2 0.00 0.00 0.00 35 1013.9
20260905054103 20 283 1.6 3.2 0.00 0.00 0.00 34 1013.9